Location: Morosaglia
(42.4360°N, 9.3069°E)
Time: 17:49:10
(UTC+00:00)

Cosmos 1763 Rocket - Pass Details

Date: 07 June 2020
Orbit: 733 x 780 km, 74.0° (Epoch: 06 July)

Event Time Altitude Azimuth Distance (km) Brightness Sun altitude
Exits shadow 00:05:58 45° 259° (WSW) 1,000 3.9 -24.0°
Maximum altitude 00:06:54 51° 294° (WNW) 923 3.9 -24.0°
Drops below altitude 10° 00:11:50 10° 10° (N) 2,244 7.0 -23.8°
Sets 00:14:16 0° 16° (NNE) 3,169 8.1 -23.7°
